period_start,C,m1,H,J0,J1,J2,J3,J4,J5,JA,JB,JC,JD,JJ,JK,JN,#
2016-05-27 00:01:22,0.00,0.42,0.00,20.07,24.97,27.88,14.77,45.23,1023.14,2047.96,3405.06,3041.10,3451.88,600.06,605.92,32.63,0000 0000 0000 0000 000000
2016-05-27 00:06:23,0.00,0.42,0.00,20.09,24.98,27.88,14.80,45.09,1023.13,2047.96,3405.02,3041.09,3451.76,599.85,605.63,32.68,0000 0000 0000 0000 000000
2016-05-27 00:11:25,-0.00,0.42,0.00,20.13,24.99,27.87,14.78,45.23,1023.07,2047.95,3405.02,3041.06,3451.60,600.67,606.37,32.73,0000 0000 0000 0000 000000
2016-05-27 00:16:26,0.00,0.42,0.00,20.17,25.00,27.89,14.79,45.27,1023.12,2047.90,3404.95,3041.01,3451.19,600.38,606.03,32.78,0000 0000 0000 0000 000000
2016-05-27 00:21:27,0.02,0.42,0.00,20.20,25.01,27.88,14.76,45.14,1023.01,2047.89,3404.14,3040.99,3451.01,599.84,605.33,32.83,0000 0000 0000 0000 000000
2016-05-27 00:26:29,0.01,0.42,0.00,20.21,25.02,27.90,14.73,45.09,1023.03,2047.94,3404.02,3040.98,3450.99,599.77,605.27,32.88,0000 0000 0000 0000 000000
2016-05-27 00:31:30,-0.00,0.42,0.00,20.22,25.02,27.90,14.77,45.17,1023.13,2047.88,3404.00,3040.88,3450.98,600.37,605.78,32.93,0000 0000 0000 0000 000000
2016-05-27 00:36:31,0.02,0.42,0.00,20.24,25.05,27.91,14.71,45.17,1023.19,2047.63,3403.44,3040.13,3450.25,599.88,605.46,32.98,0000 0000 0000 0000 000000
2016-05-27 00:41:33,-0.01,0.42,0.00,20.27,25.05,27.93,14.70,45.18,1023.21,2047.58,3403.05,3040.01,3450.03,599.39,605.03,33.03,0000 0000 0000 0000 000000
2016-05-27 00:46:34,-0.02,0.42,0.00,20.29,25.07,27.94,14.76,45.09,1023.28,2047.29,3403.00,3040.00,3450.00,600.14,605.64,33.08,0000 0000 0000 0000 000000
2016-05-27 00:51:36,-0.02,0.42,0.00,20.29,25.07,27.96,14.66,45.03,1023.29,2047.12,3403.00,3040.00,3450.00,599.82,605.39,33.13,0000 0000 0000 0000 000000
2016-05-27 00:56:37,-0.00,0.42,0.00,20.31,25.10,27.97,14.81,45.12,1023.27,2047.07,3403.00,3039.99,3449.99,599.98,605.47,33.18,0000 0000 0000 0000 000000
2016-05-27 01:01:38,0.00,0.42,0.00,20.34,25.10,27.98,14.76,45.20,1023.27,2047.01,3402.97,3039.95,3449.92,600.15,605.47,33.24,0000 0000 0000 0000 000000
2016-05-27 01:06:40,0.00,0.42,0.00,20.36,25.12,27.98,14.71,45.17,1023.39,2047.00,3402.89,3039.94,3449.62,599.81,605.22,33.29,0000 0000 0000 0000 000000
2016-05-27 01:11:41,0.03,0.42,0.00,20.38,25.12,28.02,14.68,45.19,1023.42,2047.00,3402.47,3039.59,3449.25,600.08,605.37,33.34,0000 0000 0000 0000 000000
2016-05-27 01:16:42,0.01,0.42,0.00,20.39,25.15,28.01,14.70,45.00,1023.45,2047.01,3402.06,3039.16,3449.05,600.01,605.32,33.39,0000 0000 0000 0000 000000
2016-05-27 01:21:43,0.00,0.42,0.00,20.41,25.15,28.02,14.76,44.95,1023.44,2047.00,3402.02,3039.05,3449.02,600.08,605.41,33.44,0000 0000 0000 0000 000000
2016-05-27 01:26:44,0.00,0.42,0.00,20.43,25.17,28.03,14.65,44.96,1023.45,2047.00,3402.00,3039.01,3449.00,600.02,605.30,33.49,0000 0000 0000 0000 000000
2016-05-27 01:31:46,0.00,0.42,0.00,20.45,25.18,28.06,14.74,45.19,1023.45,2047.00,3402.00,3039.01,3448.99,600.11,605.36,33.54,0000 0000 0000 0000 000000
2016-05-27 01:36:47,0.00,0.42,0.00,20.48,25.20,28.08,14.72,45.37,1023.45,2047.00,3402.00,3039.00,3448.99,599.71,605.00,33.59,0000 0000 0000 0000 000000
2016-05-27 01:41:48,0.00,0.42,0.00,20.50,25.21,28.08,14.72,45.36,1023.45,2047.00,3401.98,3038.98,3448.97,599.76,605.05,33.64,0000 0000 0000 0000 000000
2016-05-27 01:46:49,0.00,0.42,0.00,20.52,25.22,28.09,14.66,45.23,1023.45,2047.00,3401.88,3038.96,3448.77,599.88,604.99,33.69,0000 0000 0000 0000 000000
2016-05-27 01:51:51,0.03,0.42,0.00,20.54,25.25,28.11,14.68,45.09,1023.44,2047.00,3401.46,3038.60,3448.22,600.15,605.15,33.74,0000 0000 0000 0000 000000
2016-05-27 01:56:52,0.01,0.42,0.00,20.57,25.26,28.12,14.69,45.19,1023.45,2047.00,3401.08,3038.09,3448.02,599.88,604.88,33.79,0000 0000 0000 0000 000000
2016-05-27 02:01:53,0.00,0.42,0.00,20.60,25.28,28.13,14.74,45.16,1023.45,2046.99,3401.00,3038.00,3448.00,600.72,605.69,33.84,0000 0000 0000 0000 000000
2016-05-27 02:06:54,0.00,0.42,0.00,20.62,25.30,28.15,14.74,45.17,1023.45,2046.99,3401.00,3038.00,3448.00,600.03,604.98,33.89,0000 0000 0000 0000 000000
2016-05-27 02:11:56,0.00,0.42,0.00,20.66,25.32,28.18,14.70,45.34,1023.45,2046.98,3401.00,3037.99,3447.98,600.08,605.00,33.94,0000 0000 0000 0000 000000
2016-05-27 02:16:57,0.00,0.42,0.00,20.69,25.34,28.19,14.67,45.07,1023.45,2046.97,3400.96,3037.97,3447.72,600.04,604.83,33.99,0000 0000 0000 0000 000000
2016-05-27 02:21:58,0.00,0.42,0.00,20.72,25.36,28.21,14.78,45.12,1023.45,2046.94,3400.84,3037.88,3447.28,600.03,604.78,34.04,0000 0000 0000 0000 000000
2016-05-27 02:26:59,-0.01,0.42,0.00,20.75,25.38,28.23,14.75,45.06,1023.45,2046.65,3400.38,3037.42,3447.03,600.10,604.75,34.09,0000 0000 0000 0000 000000
2016-05-27 02:32:01,-0.03,0.42,0.00,20.77,25.40,28.25,14.68,45.07,1023.46,2046.15,3400.04,3037.04,3447.00,600.04,604.61,34.14,0000 0000 0000 0000 000000
2016-05-27 02:37:02,-0.00,0.42,0.00,20.80,25.42,28.27,14.70,45.02,1023.46,2046.04,3400.01,3037.00,3446.99,600.08,604.71,34.19,0000 0000 0000 0000 000000
2016-05-27 02:42:03,0.00,0.42,0.00,20.82,25.45,28.29,14.67,44.83,1023.46,2046.02,3400.00,3037.00,3446.90,599.77,604.10,34.24,0000 0000 0000 0000 000000
2016-05-27 02:47:04,0.00,0.42,0.00,20.84,25.47,28.33,14.73,44.99,1023.45,2046.00,3399.99,3037.00,3446.59,600.15,604.74,34.30,0000 0000 0000 0000 000000
2016-05-27 02:52:06,0.00,0.42,0.00,20.87,25.49,28.33,14.73,44.83,1023.45,2046.00,3399.95,3036.97,3446.07,599.94,604.26,34.35,0000 0000 0000 0000 000000
2016-05-27 02:57:07,0.01,0.42,0.00,20.90,25.51,28.38,14.70,44.74,1023.45,2046.00,3399.72,3036.83,3446.01,599.90,604.18,34.40,0000 0000 0000 0000 000000
2016-05-27 03:02:08,0.02,0.42,0.00,20.92,25.53,28.38,14.70,45.19,1023.45,2046.00,3399.15,3036.27,3446.00,600.17,604.37,34.45,0000 0000 0000 0000 000000
2016-05-27 03:07:10,0.00,0.42,0.00,20.95,25.55,28.40,14.66,45.47,1023.46,2045.99,3399.00,3036.03,3445.98,599.80,604.04,34.50,0000 0000 0000 0000 000000
2016-05-27 03:12:11,0.00,0.42,0.00,20.98,25.57,28.42,14.78,45.40,1023.45,2045.96,3399.00,3036.00,3445.86,600.10,604.11,34.55,0000 0000 0000 0000 000000
2016-05-27 03:17:12,0.01,0.42,0.00,21.01,25.60,28.45,14.68,45.03,1023.45,2045.91,3398.95,3035.99,3445.24,599.74,603.90,34.60,0000 0000 0000 0000 000000
2016-05-27 03:22:13,-0.01,0.42,0.00,21.04,25.62,28.48,14.64,44.97,1023.45,2045.65,3398.55,3035.97,3445.02,599.75,603.79,34.65,0000 0000 0000 0000 000000
2016-05-27 03:27:15,-0.02,0.42,0.00,21.06,25.64,28.48,14.70,44.89,1023.45,2045.53,3398.20,3035.80,3445.00,600.30,604.21,34.70,0000 0000 0000 0000 000000
2016-05-27 03:32:16,-0.01,0.42,0.00,21.09,25.66,28.52,14.70,45.07,1023.45,2045.09,3398.02,3035.21,3444.99,600.45,604.32,34.75,0000 0000 0000 0000 000000
2016-05-27 03:37:18,0.00,0.42,0.00,21.11,25.68,28.54,14.63,44.87,1023.45,2045.02,3398.00,3035.03,3444.80,599.45,603.30,34.80,0000 0000 0000 0000 000000
2016-05-27 03:42:19,0.00,0.42,0.00,21.15,25.71,28.57,14.59,44.67,1023.45,2045.00,3397.99,3035.00,3444.24,599.74,603.59,34.85,0000 0000 0000 0000 000000
2016-05-27 03:47:20,0.00,0.42,0.00,21.18,25.72,28.59,14.61,45.13,1023.45,2045.00,3397.95,3035.00,3444.03,599.98,603.80,34.90,0000 0000 0000 0000 000000
2016-05-27 03:52:21,0.00,0.42,0.00,21.20,25.75,28.61,14.65,44.93,1023.44,2045.00,3397.95,3035.00,3444.02,599.68,603.45,34.95,0000 0000 0000 0000 000000
2016-05-27 03:57:22,0.01,0.42,0.00,21.24,25.77,28.64,14.71,44.84,1023.45,2044.97,3397.52,3034.82,3443.99,600.09,603.67,35.00,0000 0000 0000 0000 000000
2016-05-27 04:02:24,0.01,0.42,0.00,21.27,25.80,28.67,14.66,44.64,1023.44,2044.96,3397.24,3034.42,3443.97,599.78,603.25,35.05,0000 0000 0000 0000 000000
2016-05-27 04:07:25,0.00,0.42,0.00,21.31,25.83,28.69,14.67,44.60,1023.45,2044.87,3397.08,3034.10,3443.88,600.25,603.65,35.10,0000 0000 0000 0000 000000
2016-05-27 04:12:26,-0.04,0.42,0.00,21.33,25.85,28.73,14.67,44.53,1023.43,2044.36,3397.00,3034.00,3443.16,599.80,603.29,35.15,0000 0000 0000 0000 000000
2016-05-27 04:17:27,-0.01,0.42,0.00,21.37,25.88,28.72,14.63,44.51,1023.44,2044.10,3396.99,3033.99,3443.01,599.91,603.27,35.21,0000 0000 0000 0000 000000
2016-05-27 04:22:28,-0.00,0.42,0.00,21.41,25.91,28.75,14.64,44.97,1023.43,2044.01,3396.85,3033.94,3443.00,600.43,603.74,35.26,0000 0000 0000 0000 000000
2016-05-27 04:27:30,0.03,0.42,0.00,21.44,25.94,28.78,14.56,45.30,1023.44,2044.00,3396.18,3033.36,3442.85,599.35,602.54,35.31,0000 0000 0000 0000 000000
2016-05-27 04:32:32,0.01,0.42,0.00,21.46,25.96,28.79,14.65,45.11,1023.45,2044.00,3396.02,3033.09,3442.40,599.51,602.76,35.36,0000 0000 0000 0000 000000
2016-05-27 04:37:33,0.00,0.42,0.00,21.51,26.00,28.82,14.61,44.86,1023.45,2044.00,3396.01,3033.02,3442.07,599.61,602.60,35.41,0000 0000 0000 0000 000000
2016-05-27 04:42:34,0.00,0.42,0.00,21.54,26.02,28.86,14.65,44.67,1023.45,2043.99,3396.00,3033.00,3442.01,599.32,602.27,35.46,0000 0000 0000 0000 000000
2016-05-27 04:47:35,-0.00,0.42,0.00,21.57,26.06,28.88,14.58,44.70,1023.45,2043.97,3395.98,3032.99,3442.00,599.63,602.58,35.51,0000 0000 0000 0000 000000
2016-05-27 04:52:36,-0.01,0.42,0.00,21.59,26.08,28.89,14.70,44.75,1023.44,2043.86,3395.90,3032.96,3441.97,600.03,602.94,35.56,0000 0000 0000 0000 000000
2016-05-27 04:57:38,0.01,0.42,0.00,21.63,26.11,28.95,14.62,44.63,1023.43,2043.57,3395.33,3032.55,3441.55,599.77,602.60,35.61,0000 0000 0000 0000 000000
2016-05-27 05:02:39,-0.02,0.42,0.00,21.66,26.14,28.97,14.67,44.98,1023.44,2043.14,3395.09,3032.10,3441.09,600.47,603.26,35.66,0000 0000 0000 0000 000000
2016-05-27 05:07:40,-0.01,0.42,0.00,21.70,26.16,28.99,14.61,45.03,1023.44,2043.03,3395.00,3032.01,3441.00,599.61,602.14,35.71,0000 0000 0000 0000 000000
2016-05-27 05:12:42,-0.00,0.42,0.00,21.73,26.20,29.03,14.68,44.90,1023.45,2043.01,3395.00,3032.00,3440.99,600.18,602.82,35.76,0000 0000 0000 0000 000000
2016-05-27 05:17:43,0.00,0.42,0.00,21.76,26.22,29.05,14.60,44.51,1023.45,2043.00,3394.99,3031.99,3440.98,600.16,602.61,35.81,0000 0000 0000 0000 000000
2016-05-27 05:22:44,0.00,0.42,0.00,21.79,26.26,29.08,14.66,44.62,1023.45,2043.00,3394.91,3031.97,3440.77,599.96,602.49,35.86,0000 0000 0000 0000 000000
2016-05-27 05:27:46,0.03,0.42,0.00,21.82,26.28,29.12,14.76,44.63,1023.45,2042.98,3394.26,3031.51,3440.12,600.51,602.95,35.91,0000 0000 0000 0000 000000
2016-05-27 05:32:47,0.00,0.42,0.00,21.85,26.31,29.14,14.64,44.52,1023.46,2042.94,3394.01,3031.05,3440.01,600.25,602.62,35.96,0000 0000 0000 0000 000000
2016-05-27 05:37:48,-0.02,0.42,0.00,21.88,26.34,29.17,14.70,44.64,1023.46,2042.69,3393.99,3031.00,3439.99,599.69,602.00,36.01,0000 0000 0000 0000 000000
2016-05-27 05:42:49,-0.04,0.42,0.00,21.92,26.37,29.21,14.57,44.49,1023.45,2042.14,3393.96,3030.96,3439.82,599.82,602.01,36.06,0000 0000 0000 0000 000000
2016-05-27 05:47:50,0.01,0.42,0.00,21.94,26.40,29.23,14.59,44.92,1023.46,2042.01,3393.62,3030.90,3439.31,599.90,602.18,36.12,0000 0000 0000 0000 000000
2016-05-27 05:52:52,0.03,0.42,0.00,21.96,26.43,29.27,14.70,45.09,1023.46,2042.00,3393.10,3030.26,3439.02,600.10,602.14,36.17,0000 0000 0000 0000 000000
2016-05-27 05:57:53,0.00,0.42,0.00,22.00,26.46,29.30,14.68,44.70,1023.45,2042.00,3393.00,3030.01,3438.97,599.94,602.15,36.22,0000 0000 0000 0000 000000
2016-05-27 06:02:54,0.00,0.42,0.00,22.01,26.48,29.32,14.53,44.48,1023.47,2042.00,3393.00,3030.00,3438.96,599.48,601.60,36.27,0000 0000 0000 0000 000000
2016-05-27 06:07:55,0.01,0.42,0.00,22.04,26.51,29.37,14.59,44.52,1023.48,2041.99,3392.97,3029.99,3438.57,600.03,601.96,36.32,0000 0000 0000 0000 000000
2016-05-27 06:12:57,0.01,0.42,0.00,22.06,26.54,29.38,14.61,44.44,1023.50,2041.95,3392.69,3029.91,3438.06,600.00,601.91,36.37,0000 0000 0000 0000 000000
2016-05-27 06:17:58,0.00,0.42,0.00,22.07,26.56,29.43,14.55,44.32,1023.51,2041.78,3392.13,3029.39,3438.00,599.74,601.45,36.42,0000 0000 0000 0000 000000
2016-05-27 06:22:59,-0.02,0.42,0.00,22.09,26.58,29.44,14.67,44.67,1023.53,2041.42,3392.01,3029.11,3437.99,600.38,602.32,36.47,0000 0000 0000 0000 000000
2016-05-27 06:28:00,-0.02,0.42,0.00,22.11,26.61,29.48,14.59,45.26,1023.59,2041.07,3391.99,3029.01,3437.87,599.91,601.95,36.52,0000 0000 0000 0000 000000
2016-05-27 06:33:02,0.01,0.42,0.00,22.14,26.63,29.50,14.58,44.83,1023.73,2041.01,3391.95,3028.99,3437.18,600.00,601.94,36.57,0000 0000 0000 0000 000000
2016-05-27 06:38:03,0.00,0.42,0.00,22.15,26.65,29.52,14.62,44.61,1023.78,2041.00,3391.75,3028.97,3437.01,599.98,601.76,36.62,0000 0000 0000 0000 000000
2016-05-27 06:43:05,0.01,0.42,0.00,22.16,26.68,29.56,14.73,44.64,1023.89,2041.00,3391.42,3028.82,3437.00,600.24,602.23,36.67,0000 0000 0000 0000 000000
2016-05-27 06:48:06,0.02,0.42,0.00,22.19,26.70,29.59,14.61,44.67,1023.93,2041.00,3391.03,3028.24,3437.00,600.24,602.12,36.72,0000 0000 0000 0000 000000
2016-05-27 06:53:07,0.00,0.42,0.00,22.21,26.72,29.61,14.57,44.64,1023.94,2040.98,3391.00,3028.02,3436.93,599.66,601.56,36.77,0000 0000 0000 0000 000000
2016-05-27 06:58:09,0.00,0.42,0.00,22.22,26.75,29.63,14.65,44.54,1023.93,2040.92,3391.00,3028.00,3436.47,600.17,602.15,36.82,0000 0000 0000 0000 000000
2016-05-27 07:03:10,-0.03,0.42,0.00,22.24,26.77,29.64,14.61,44.59,1023.92,2040.67,3390.99,3028.00,3436.09,599.77,601.61,36.87,0000 0000 0000 0000 000000
2016-05-27 07:08:11,-0.02,0.42,0.00,22.25,26.79,29.67,14.59,44.48,1023.93,2040.20,3390.97,3027.99,3436.00,599.53,601.40,36.92,0000 0000 0000 0000 000000
2016-05-27 07:13:12,-0.00,0.42,0.00,22.27,26.81,29.70,14.59,44.75,1023.92,2040.09,3390.75,3027.88,3436.00,600.10,601.87,36.97,0000 0000 0000 0000 000000
2016-05-27 07:18:14,0.00,0.42,0.00,22.29,26.83,29.72,14.61,44.69,1023.91,2040.02,3390.35,3027.64,3435.99,599.79,601.52,37.02,0000 0000 0000 0000 000000
2016-05-27 07:23:15,0.02,0.42,0.00,22.30,26.85,29.74,14.60,44.48,1023.91,2040.00,3390.19,3027.23,3435.95,599.89,601.58,37.07,0000 0000 0000 0000 000000
2016-05-27 07:28:16,0.00,0.42,0.00,22.31,26.87,29.75,14.68,44.46,1023.93,2040.00,3390.03,3027.04,3435.78,600.23,601.93,37.13,0000 0000 0000 0000 000000
2016-05-27 07:33:17,0.00,0.42,0.00,22.32,26.89,29.80,14.57,44.33,1023.94,2040.00,3390.00,3027.01,3435.29,600.17,601.84,37.18,0000 0000 0000 0000 000000
2016-05-27 07:38:19,0.00,0.42,0.00,22.34,26.91,29.80,14.59,44.63,1023.94,2040.00,3390.00,3027.00,3435.05,600.00,601.61,37.23,0000 0000 0000 0000 000000
2016-05-27 07:43:20,0.00,0.42,0.00,22.34,26.92,29.83,14.59,44.63,1023.94,2040.00,3389.98,3027.00,3435.00,600.07,601.70,37.28,0000 0000 0000 0000 000000
2016-05-27 07:48:21,0.00,0.42,0.00,22.37,26.95,29.84,14.70,44.34,1023.95,2039.99,3389.96,3026.98,3435.00,600.40,602.05,37.33,0000 0000 0000 0000 000000
2016-05-27 07:53:23,0.00,0.42,0.00,22.37,26.96,29.87,14.62,45.39,1023.94,2039.98,3389.73,3026.94,3434.99,600.05,601.79,37.38,0000 0000 0000 0000 000000
2016-05-27 07:58:24,0.02,0.42,0.00,22.37,26.97,29.89,14.61,45.18,1023.95,2039.95,3389.18,3026.43,3434.87,599.85,601.47,37.43,0000 0000 0000 0000 000000
2016-05-27 08:03:26,0.01,0.43,0.00,22.38,27.00,29.90,14.69,44.76,1023.95,2039.77,3389.01,3026.04,3434.16,600.24,601.89,37.48,0000 0000 0000 0000 000000
2016-05-27 08:08:27,-0.02,0.42,0.00,22.39,27.01,29.94,14.53,44.59,1023.94,2039.51,3389.00,3026.01,3434.05,600.04,601.60,37.53,0000 0000 0000 0000 000000
2016-05-27 08:13:28,-0.03,0.42,0.00,22.38,27.02,29.95,14.57,44.59,1023.94,2039.19,3388.99,3026.00,3434.01,599.65,601.23,37.58,0000 0000 0000 0000 000000
2016-05-27 08:18:29,-0.00,0.42,0.00,22.39,27.05,29.96,14.67,44.59,1023.94,2039.13,3388.99,3026.00,3434.00,599.93,601.48,37.63,0000 0000 0000 0000 000000
2016-05-27 08:23:31,-0.01,0.42,0.00,22.39,27.06,29.96,14.58,44.47,1023.94,2039.04,3388.92,3025.98,3434.00,599.69,601.39,37.68,0000 0000 0000 0000 000000
2016-05-27 08:28:32,0.01,0.42,0.00,22.39,27.07,29.98,14.67,44.38,1023.95,2039.02,3388.57,3025.95,3433.96,600.24,601.81,37.73,0000 0000 0000 0000 000000
2016-05-27 08:33:33,0.01,0.42,0.00,22.39,27.09,29.99,14.65,44.67,1023.95,2039.01,3388.07,3025.71,3433.82,600.20,601.86,37.78,0000 0000 0000 0000 000000
2016-05-27 08:38:34,0.01,0.42,0.00,22.38,27.10,30.01,14.56,44.45,1023.95,2039.00,3388.02,3025.37,3433.44,599.38,600.96,37.83,0000 0000 0000 0000 000000
2016-05-27 08:43:35,0.01,0.42,0.00,22.39,27.12,30.01,14.62,44.40,1023.95,2039.00,3387.97,3025.04,3433.05,600.03,601.58,37.88,0000 0000 0000 0000 000000
2016-05-27 08:48:37,0.00,0.43,0.00,22.38,27.12,30.03,14.72,44.62,1023.96,2039.00,3387.86,3025.00,3433.00,600.40,602.01,37.93,0000 0000 0000 0000 000000
2016-05-27 08:53:38,0.00,0.43,0.00,22.37,27.14,30.04,14.66,44.48,1023.94,2039.00,3387.64,3025.00,3433.00,599.82,601.42,37.98,0000 0000 0000 0000 000000
2016-05-27 08:58:39,0.01,0.43,0.00,22.37,27.15,30.05,14.65,44.25,1023.95,2038.99,3387.19,3025.00,3432.99,599.64,601.27,38.04,0000 0000 0000 0000 000000
2016-05-27 09:03:41,0.01,0.43,0.00,22.37,27.15,30.07,14.64,44.23,1023.96,2038.99,3387.01,3024.95,3432.80,600.00,601.57,38.09,0000 0000 0000 0000 000000
2016-05-27 09:08:42,0.01,0.43,0.00,22.37,27.17,30.08,14.65,44.33,1023.97,2038.99,3386.96,3024.71,3432.37,599.69,601.27,38.14,0000 0000 0000 0000 000000
2016-05-27 09:13:43,0.02,0.43,0.00,22.37,27.17,30.08,14.58,44.73,1024.02,2038.99,3386.78,3024.31,3432.08,600.20,601.74,38.19,0000 0000 0000 0000 000000
2016-05-27 09:18:44,0.01,0.43,0.00,22.35,27.18,30.09,14.58,45.17,1023.99,2038.96,3386.13,3024.06,3432.01,599.70,601.43,38.24,0000 0000 0000 0000 000000
2016-05-27 09:23:45,-0.00,0.43,0.00,22.35,27.19,30.09,14.62,44.79,1024.00,2038.96,3386.04,3024.03,3432.00,599.87,601.61,38.29,0000 0000 0000 0000 000000
2016-05-27 09:28:46,-0.00,0.43,0.00,22.34,27.20,30.10,14.65,44.69,1024.04,2038.94,3386.01,3024.00,3432.00,600.11,601.92,38.34,0000 0000 0000 0000 000000
2016-05-27 09:33:48,-0.00,0.43,0.00,22.33,27.20,30.11,14.63,44.70,1024.03,2038.92,3386.00,3024.00,3431.98,599.78,601.49,38.39,0000 0000 0000 0000 000000
2016-05-27 09:38:49,-0.01,0.43,0.00,22.32,27.20,30.11,14.65,44.46,1023.99,2038.72,3386.00,3024.00,3431.97,599.90,601.62,38.44,0000 0000 0000 0000 000000
2016-05-27 09:43:50,0.00,0.43,0.00,22.30,27.22,30.12,14.60,44.37,1023.99,2038.80,3385.99,3023.99,3431.95,599.86,601.74,38.49,0000 0000 0000 0000 000000
2016-05-27 09:48:51,-0.00,0.43,0.00,22.38,27.22,30.23,14.71,44.40,1024.00,2038.79,3385.93,3023.99,3431.77,600.31,601.90,38.54,0000 0000 0000 0000 000000
2016-05-27 09:53:53,0.00,0.43,0.00,22.29,27.22,30.33,14.71,44.34,1024.03,2038.72,3385.50,3023.98,3431.48,599.91,601.67,38.59,0000 0000 0000 0000 000000
2016-05-27 09:58:54,-0.02,0.43,0.00,22.28,27.22,30.33,14.57,44.52,1024.11,2038.32,3385.03,3023.61,3431.07,599.92,601.87,38.64,0000 0000 0000 0000 000000
2016-05-27 10:03:56,0.02,0.43,0.00,22.27,27.22,30.33,14.62,44.83,1024.33,2038.32,3385.00,3023.28,3431.01,599.79,601.93,38.69,0000 0000 0000 0000 000000
2016-05-27 10:08:57,0.01,0.43,0.00,22.25,27.22,30.32,14.70,44.52,1024.41,2038.32,3385.00,3023.08,3431.00,600.30,602.39,38.74,0000 0000 0000 0000 000000
2016-05-27 10:13:58,-0.01,0.43,0.00,22.25,27.22,30.32,14.62,44.67,1024.40,2038.22,3385.00,3023.05,3431.00,599.84,601.85,38.79,0000 0000 0000 0000 000000
2016-05-27 10:19:00,-0.00,0.43,0.00,22.24,27.22,30.32,14.65,44.57,1024.41,2038.19,3384.98,3023.01,3430.98,599.77,601.86,38.84,0000 0000 0000 0000 000000
2016-05-27 10:24:01,-0.00,0.43,0.00,22.23,27.22,30.35,14.69,44.58,1024.41,2038.12,3384.87,3023.00,3430.92,600.15,602.39,38.89,0000 0000 0000 0000 000000
2016-05-27 10:29:02,0.02,0.43,0.00,22.22,27.23,30.34,14.65,44.53,1024.43,2038.10,3384.33,3023.00,3430.47,599.99,602.22,38.94,0000 0000 0000 0000 000000
2016-05-27 10:34:04,0.00,0.43,0.00,22.22,27.24,30.35,14.73,44.48,1024.43,2038.11,3384.08,3023.00,3430.27,600.42,602.60,38.99,0000 0000 0000 0000 000000
2016-05-27 10:39:05,0.01,0.43,0.00,22.20,27.25,30.36,14.63,44.97,1024.43,2038.11,3384.01,3022.96,3430.09,600.04,602.38,39.05,0000 0000 0000 0000 000000
2016-05-27 10:44:06,-0.00,0.43,0.00,22.20,27.25,30.37,14.76,44.59,1024.43,2038.08,3384.00,3022.90,3430.00,600.34,602.57,39.10,0000 0000 0000 0000 000000
2016-05-27 10:49:07,0.00,0.43,0.00,22.18,27.25,30.34,14.65,44.50,1024.43,2038.09,3384.00,3022.83,3430.00,599.70,602.09,39.15,0000 0000 0000 0000 000000
2016-05-27 10:54:09,0.01,0.43,0.00,22.17,27.25,30.37,14.62,44.31,1024.43,2038.05,3383.98,3022.29,3430.00,599.77,602.08,39.20,0000 0000 0000 0000 000000
2016-05-27 10:59:10,0.01,0.43,0.00,22.15,27.25,30.38,14.67,44.38,1024.43,2038.06,3383.56,3022.04,3429.98,599.96,602.21,39.25,0000 0000 0000 0000 000000
2016-05-27 11:04:11,0.00,0.43,0.00,22.14,27.25,30.38,14.65,45.05,1024.43,2038.04,3383.09,3022.01,3429.91,600.33,602.77,39.30,0000 0000 0000 0000 000000
2016-05-27 11:09:12,0.00,0.43,0.00,22.13,27.25,30.36,14.67,44.62,1024.43,2038.03,3383.01,3022.00,3429.56,599.66,602.08,39.35,0000 0000 0000 0000 000000
2016-05-27 11:14:13,0.00,0.43,0.00,22.13,27.25,30.34,14.72,44.38,1024.43,2038.02,3383.00,3022.00,3429.24,600.27,602.61,39.40,0000 0000 0000 0000 000000
2016-05-27 11:19:15,0.00,0.43,0.00,22.12,27.25,30.30,14.65,44.35,1024.43,2038.03,3382.99,3021.99,3429.10,599.85,602.25,39.45,0000 0000 0000 0000 000000
2016-05-27 11:24:16,0.00,0.43,0.00,22.09,27.25,30.17,14.66,44.28,1024.43,2038.07,3382.99,3021.99,3429.10,599.90,602.36,39.50,0000 0000 0000 0000 000000
2016-05-27 11:29:18,-0.00,0.43,0.00,22.04,27.25,30.19,14.77,44.77,1024.43,2038.07,3382.99,3021.99,3429.07,600.72,603.23,39.55,0000 0000 0000 0000 000000
2016-05-27 11:34:19,0.01,0.43,0.00,21.98,27.23,30.17,14.65,45.08,1024.43,2038.11,3382.96,3021.99,3429.03,599.70,602.43,39.60,0000 0000 0000 0000 000000
2016-05-27 11:39:20,0.02,0.43,0.00,21.90,27.22,30.19,14.65,44.67,1024.43,2038.26,3382.94,3021.99,3429.07,599.75,602.62,39.65,0000 0000 0000 0000 000000
2016-05-27 11:44:22,-0.01,0.43,0.00,21.89,27.20,30.17,14.67,44.61,1024.43,2038.34,3382.96,3021.99,3429.13,599.62,602.41,39.70,0000 0000 0000 0000 000000
2016-05-27 11:49:23,0.03,0.43,0.00,21.87,27.19,30.14,14.71,44.21,1024.42,2038.64,3382.96,3021.99,3429.27,599.86,602.75,39.75,0000 0000 0000 0000 000000
2016-05-27 11:54:25,0.01,0.43,0.00,21.85,27.17,30.11,14.66,44.34,1024.40,2038.75,3382.97,3022.00,3429.56,600.11,603.03,39.80,0000 0000 0000 0000 000000
2016-05-27 11:59:26,0.00,0.44,0.00,21.82,27.15,30.08,14.67,44.25,1024.42,2038.94,3382.98,3022.01,3429.80,599.80,602.77,39.85,0000 0000 0000 0000 000000
2016-05-27 12:04:27,0.00,0.44,0.00,21.80,27.12,30.04,14.68,44.44,1024.42,2038.95,3382.98,3022.03,3429.83,599.87,602.95,39.90,0000 0000 0000 0000 000000
2016-05-27 12:09:28,0.00,0.44,0.00,21.79,27.11,30.01,14.66,44.35,1024.39,2038.97,3382.98,3022.04,3429.95,599.93,603.10,39.96,0000 0000 0000 0000 000000
2016-05-27 12:14:29,-0.00,0.44,0.00,21.77,27.08,29.99,14.69,45.11,1024.32,2038.99,3382.99,3022.12,3429.99,600.28,603.33,40.01,0000 0000 0000 0000 000000
2016-05-27 12:19:31,-0.00,0.44,0.00,21.74,27.06,29.96,14.75,44.78,1024.32,2038.98,3382.99,3022.16,3429.99,600.05,603.15,40.06,0000 0000 0000 0000 000000
2016-05-27 12:24:32,-0.01,0.43,0.00,21.72,27.04,29.97,14.62,44.67,1024.32,2038.99,3382.99,3022.53,3429.99,599.49,602.70,40.11,0000 0000 0000 0000 000000
2016-05-27 12:29:33,-0.00,0.43,0.00,21.71,27.02,29.94,14.68,44.59,1024.27,2038.99,3383.03,3022.95,3430.00,599.60,602.68,40.16,0000 0000 0000 0000 000000
2016-05-27 12:34:34,0.00,0.43,0.00,21.69,27.00,29.91,14.71,44.48,1024.28,2039.01,3383.07,3022.99,3430.05,600.29,603.46,40.21,0000 0000 0000 0000 000000
2016-05-27 12:39:35,0.00,0.43,0.00,21.67,26.98,29.88,14.70,44.52,1024.17,2039.04,3383.10,3022.99,3430.16,600.04,603.20,40.26,0000 0000 0000 0000 000000
2016-05-27 12:44:37,-0.01,0.43,0.00,21.64,26.96,29.86,14.68,44.33,1024.15,2039.12,3383.39,3022.99,3430.60,600.03,603.24,40.31,0000 0000 0000 0000 000000
2016-05-27 12:49:38,0.01,0.43,0.00,21.61,26.95,29.86,14.81,44.49,1024.20,2039.26,3383.68,3023.00,3430.89,600.25,603.53,40.36,0000 0000 0000 0000 000000
2016-05-27 12:54:39,0.02,0.44,0.00,21.59,26.92,29.83,14.65,44.38,1024.27,2039.62,3383.93,3023.04,3430.96,599.65,603.05,40.41,0000 0000 0000 0000 000000